• In Hungary
  • List of Countries
  • For 7 days
  • Water Temperature
  • Satellite Maps
  • Weather Map
  • News
  • Weather Widgets
  • user-avatar
    Login

    Hourly Weather Suhar

    Today, 17 January, Wednesday

    Time Temperature Precipitation Wind Pressure Humidity
    00:00 +21°C° 0 mm 4 mps 760 mmHg 50%
    01:00 +21°C° 0 mm 4 mps 760 mmHg 52%
    02:00 +20°C° 0 mm 4 mps 760 mmHg 53%
    03:00 +20°C° 0 mm 4 mps 760 mmHg 55%
    04:00 +19°C° 0 mm 4 mps 759 mmHg 57%
    05:00 +19°C° 0 mm 4 mps 760 mmHg 58%
    06:00 +19°C° 0 mm 3 mps 760 mmHg 59%
    07:00 +18°C° 0 mm 3 mps 760 mmHg 61%
    08:00 +20°C° 0 mm 3 mps 760 mmHg 55%
    09:00 +21°C° 0 mm 3 mps 760 mmHg 48%
    10:00 +24°C° 0 mm 2 mps 761 mmHg 42%
    11:00 +25°C° 0 mm 2 mps 760 mmHg 38%
    12:00 +26°C° 0 mm 2 mps 760 mmHg 35%
    13:00 +27°C° 0 mm 2 mps 759 mmHg 32%
    14:00 +27°C° 0 mm 3 mps 759 mmHg 34%
    15:00 +27°C° 0 mm 3 mps 759 mmHg 36%
    16:00 +27°C° 0 mm 4 mps 759 mmHg 38%
    17:00 +26°C° 0 mm 3 mps 759 mmHg 43%
    18:00 +25°C° 0 mm 3 mps 759 mmHg 48%
    19:00 +24°C° 0 mm 2 mps 759 mmHg 53%
    20:00 +23°C° 0 mm 1 mps 760 mmHg 56%
    21:00 +23°C° 0 mm 1 mps 760 mmHg 58%
    22:00 +20°C° 0 mm 0 mps 760 mmHg 61%
    23:00 +22°C° 0 mm 1 mps 760 mmHg 63%

    Tomorrow, 18 January, Thursday

    Time Temperature Precipitation Wind Pressure Humidity
    00:00 +21°C° 0 mm 1 mps 760 mmHg 65%
    01:00 +21°C° 0 mm 1 mps 760 mmHg 67%
    02:00 +21°C° 0 mm 1 mps 760 mmHg 68%
    03:00 +19°C° 0 mm 2 mps 760 mmHg 68%
    04:00 +19°C° 0 mm 2 mps 760 mmHg 69%
    05:00 +19°C° 0 mm 2 mps 760 mmHg 70%
    06:00 +18°C° 0 mm 2 mps 760 mmHg 72%
    07:00 +18°C° 0 mm 2 mps 761 mmHg 73%
    08:00 +20°C° 0 mm 2 mps 761 mmHg 65%
    09:00 +21°C° 0 mm 2 mps 761 mmHg 57%
    10:00 +24°C° 0 mm 2 mps 762 mmHg 49%
    11:00 +25°C° 0 mm 2 mps 761 mmHg 45%
    12:00 +25°C° 0 mm 2 mps 761 mmHg 41%
    13:00 +26°C° 0 mm 3 mps 760 mmHg 38%
    14:00 +26°C° 0 mm 3 mps 760 mmHg 40%
    15:00 +26°C° 0 mm 3 mps 760 mmHg 42%
    16:00 +26°C° 0 mm 3 mps 760 mmHg 45%
    17:00 +25°C° 0 mm 3 mps 760 mmHg 49%
    18:00 +24°C° 0 mm 2 mps 760 mmHg 53%
    19:00 +24°C° 0 mm 2 mps 761 mmHg 58%
    20:00 +23°C° 0 mm 1 mps 761 mmHg 60%
    21:00 +23°C° 0 mm 1 mps 761 mmHg 63%
    22:00 +22°C° 0 mm 1 mps 762 mmHg 65%
    23:00 +22°C° 0 mm 1 mps 762 mmHg 68%

    Day after tomorrow, 19 January, Friday

    Time Temperature Precipitation Wind Pressure Humidity
    00:00 +21°C° 0 mm 1 mps 762 mmHg 71%
    01:00 +19°C° 0 mm 0 mps 762 mmHg 74%
    02:00 +19°C° 0 mm 0 mps 761 mmHg 76%
    03:00 +20°C° 0 mm 1 mps 761 mmHg 78%
    04:00 +20°C° 0 mm 1 mps 761 mmHg 81%
    05:00 +20°C° 0 mm 1 mps 761 mmHg 82%
    06:00 +19°C° 0 mm 1 mps 762 mmHg 83%
    07:00 +19°C° 0 mm 1 mps 762 mmHg 84%
    08:00 +21°C° 0 mm 1 mps 762 mmHg 77%
    09:00 +22°C° 0 mm 1 mps 763 mmHg 71%
    10:00 +23°C° 0 mm 1 mps 763 mmHg 64%
    11:00 +24°C° 0 mm 1 mps 763 mmHg 59%
    12:00 +25°C° 0 mm 2 mps 762 mmHg 54%
    13:00 +26°C° 0 mm 2 mps 762 mmHg 49%
    14:00 +26°C° 0 mm 3 mps 761 mmHg 49%
    15:00 +26°C° 0 mm 3 mps 761 mmHg 50%
    16:00 +26°C° 0 mm 4 mps 761 mmHg 51%
    17:00 +25°C° 0 mm 3 mps 761 mmHg 55%
    18:00 +24°C° 0 mm 3 mps 762 mmHg 59%
    19:00 +23°C° 0 mm 2 mps 762 mmHg 64%
    20:00 +23°C° 0 mm 2 mps 762 mmHg 67%
    21:00 +23°C° 0 mm 2 mps 763 mmHg 70%
    22:00 +21°C° 0 mm 2 mps 763 mmHg 73%
    23:00 +21°C° 0 mm 2 mps 763 mmHg 76%

    20 January, Saturday

    Time Temperature Precipitation Wind Pressure Humidity
    00:00 +22°C° 0 mm 1 mps 763 mmHg 79%
    01:00 +21°C° 0 mm 1 mps 762 mmHg 82%
    02:00 +21°C° 0 mm 1 mps 762 mmHg 82%
    03:00 +21°C° 0 mm 1 mps 762 mmHg 82%
    04:00 +20°C° 0 mm 1 mps 762 mmHg 82%
    05:00 +20°C° 0 mm 1 mps 762 mmHg 82%
    06:00 +20°C° 0 mm 1 mps 762 mmHg 82%
    07:00 +20°C° 0 mm 1 mps 763 mmHg 82%
    08:00 +21°C° 0 mm 1 mps 763 mmHg 72%
    09:00 +23°C° 0 mm 1 mps 763 mmHg 63%
    10:00 +25°C° 0 mm 1 mps 764 mmHg 53%
    11:00 +26°C° 0 mm 1 mps 763 mmHg 48%
    12:00 +27°C° 0 mm 2 mps 762 mmHg 44%
    13:00 +28°C° 0 mm 2 mps 762 mmHg 39%
    14:00 +28°C° 0 mm 3 mps 761 mmHg 41%
    15:00 +28°C° 0 mm 3 mps 761 mmHg 43%
    16:00 +28°C° 0 mm 4 mps 761 mmHg 45%
    17:00 +27°C° 0 mm 3 mps 761 mmHg 48%
    18:00 +26°C° 0 mm 2 mps 761 mmHg 52%
    19:00 +25°C° 0 mm 2 mps 762 mmHg 55%
    20:00 +25°C° 0 mm 2 mps 762 mmHg 56%
    21:00 +24°C° 0 mm 2 mps 762 mmHg 57%
    22:00 +24°C° 0 mm 1 mps 762 mmHg 58%
    23:00 +23°C° 0 mm 1 mps 762 mmHg 56%

    21 January, Sunday

    Time Temperature Precipitation Wind Pressure Humidity
    00:00 +23°C° 0 mm 1 mps 762 mmHg 55%
    01:00 +22°C° 0 mm 1 mps 761 mmHg 53%
    02:00 +21°C° 0 mm 2 mps 761 mmHg 50%
    03:00 +21°C° 0 mm 2 mps 761 mmHg 47%
    04:00 +21°C° 0 mm 2 mps 761 mmHg 44%
    05:00 +20°C° 0 mm 3 mps 761 mmHg 46%
    06:00 +20°C° 0 mm 3 mps 761 mmHg 48%
    07:00 +20°C° 0 mm 4 mps 762 mmHg 49%
    08:00 +21°C° 0 mm 4 mps 762 mmHg 47%
    09:00 +23°C° 0 mm 5 mps 762 mmHg 45%
    10:00 +25°C° 0 mm 5 mps 763 mmHg 42%
    11:00 +26°C° 0 mm 6 mps 762 mmHg 37%
    12:00 +27°C° 0 mm 7 mps 761 mmHg 32%
    13:00 +27°C° 0 mm 8 mps 760 mmHg 27%
    14:00 +27°C° 0 mm 8 mps 760 mmHg 28%
    15:00 +27°C° 0 mm 8 mps 760 mmHg 29%
    16:00 +26°C° 0 mm 9 mps 760 mmHg 30%
    17:00 +24°C° 0 mm 8 mps 760 mmHg 34%
    18:00 +23°C° 0 mm 7 mps 760 mmHg 39%
    19:00 +22°C° 0 mm 7 mps 761 mmHg 43%
    20:00 +21°C° 0 mm 6 mps 761 mmHg 45%
    21:00 +21°C° 0 mm 5 mps 761 mmHg 47%
    22:00 +20°C° 0 mm 5 mps 761 mmHg 50%
    23:00 +20°C° 0 mm 5 mps 761 mmHg 52%

    22 January, Monday

    Time Temperature Precipitation Wind Pressure Humidity
    00:00 +19°C° 0 mm 4 mps 761 mmHg 54%
    01:00 +19°C° 0 mm 4 mps 761 mmHg 56%
    02:00 +18°C° 0 mm 4 mps 761 mmHg 56%
    03:00 +18°C° 0 mm 3 mps 761 mmHg 57%
    04:00 +18°C° 0 mm 3 mps 761 mmHg 58%
    05:00 +17°C° 0 mm 3 mps 761 mmHg 58%
    06:00 +17°C° 0 mm 2 mps 761 mmHg 58%
    07:00 +16°C° 0 mm 2 mps 762 mmHg 58%
    08:00 +18°C° 0 mm 2 mps 762 mmHg 50%
    09:00 +20°C° 0 mm 2 mps 763 mmHg 42%
    10:00 +23°C° 0 mm 2 mps 763 mmHg 34%
    11:00 +24°C° 0 mm 2 mps 762 mmHg 33%
    12:00 +24°C° 0 mm 2 mps 762 mmHg 33%
    13:00 +25°C° 0 mm 2 mps 761 mmHg 32%
    14:00 +25°C° 0 mm 2 mps 761 mmHg 33%
    15:00 +25°C° 0 mm 2 mps 761 mmHg 34%
    16:00 +25°C° 0 mm 2 mps 760 mmHg 36%
    17:00 +24°C° 0 mm 2 mps 761 mmHg 40%
    18:00 +23°C° 0 mm 2 mps 761 mmHg 44%
    19:00 +23°C° 0 mm 2 mps 761 mmHg 48%
    20:00 +21°C° 0 mm 2 mps 761 mmHg 51%
    21:00 +21°C° 0 mm 2 mps 762 mmHg 54%
    22:00 +20°C° 0 mm 2 mps 762 mmHg 56%
    23:00 +20°C° 0 mm 1 mps 761 mmHg 58%
    Show more